Wind_Gust
10 14 9 12 13 15 15 18 21 20 19 18 13 16 15 14 13 16 14 9 13 13 11 11 13 12 11 10 13 16 15 15 16 19 17 16 10 12 12 13 15 20 22 25 27 25 25 19 18 19 18 19 19 20 21 20 21 20 20 20 21 20 21 21 20 20 20 21 21 21 20 18 19 18 18 19 19 19 18 18 18 18 19 20 21 21 21 22 22 21 21 21 21 22 22 21 20
11 9 11 13 16 17 20 11 26 14 16 16 16 12 12 12 13 14 13 12 15 14 10 13 14 14 12 14 15 12 17 19 17 19 16 11 13 16 13 16 17 21 20 24 26 25 24 24 17 18 18 18 19 20 21 21 20 19 19 20 21 21 21 21 21 21 21 21 21 20 20 19 18 19 19 19 19 18 18 18 19 20 19 20 21 21 22 22 21 21 20 21 22 22 21 20 19
10 13 15 15 16 21 13 19 25 17 16 17 15 14 16 16 11 13 11 14 12 10 13 13 13 10 12 14 16 15 13 9 12 12 15 12 19 17 15 15 16 17 21 21 23 24 24 23 17 18 18 18 18 19 20 20 20 19 19 20 21 22 23 23 23 23 22 22 22 20 19 19 18 18 19 19 18 18 18 18 20 20 19 20 20 21 21 20 21 20 21 21 22 22 21 20 19
11 11 16 16 21 18 24 20 21 19 17 14 12 16 15 12 12 11 10 11 11 12 14 16 14 10 13 12 11 11 16 11 10 11 16 19 15 20 19 16 15 18 18 20 20 22 22 22 19 18 18 18 18 18 19 20 19 20 20 20 21 22 22 23 24 23 22 21 21 19 17 18 19 20 19 19 18 17 17 18 18 19 19 18 20 19 20 21 20 21 21 21 22 21 20 19 17
14 13 15 19 21 24 25 20 18 16 21 14 14 19 16 12 10 9 10 10 11 10 11 12 11 11 13 14 10 12 16 12 12 7 16 14 19 19 18 17 17 18 19 19 20 22 24 20 19 17 18 18 18 18 19 19 19 19 20 21 21 21 22 23 23 22 22 21 19 18 18 18 19 19 19 18 18 17 17 18 17 18 18 19 20 19 19 20 20 21 21 21 21 20 19 17 16
14 15 14 19 25 23 19 18 21 21 19 14 15 14 12 11 11 12 13 12 10 10 10 13 10 11 12 13 16 13 12 10 11 11 15 18 18 18 18 17 17 18 18 19 20 21 25 19 19 18 17 17 17 18 19 19 20 20 20 21 22 21 22 22 22 21 20 19 20 21 19 19 18 18 18 18 17 17 17 17 17 16 18 20 20 19 19 19 19 20 21 20 20 19 17 16 15
20 20 21 20 17 20 23 21 20 17 15 14 16 16 13 12 13 13 13 12 12 10 10 13 12 13 13 17 19 18 13 9 10 14 11 19 18 18 18 19 18 19 17 19 20 22 26 18 17 17 17 17 18 18 18 18 20 20 20 21 21 22 22 22 22 21 19 19 20 19 17 18 19 18 18 18 17 17 17 17 16 15 17 18 20 18 19 18 19 19 19 19 18 17 16 14 14
13 22 24 25 23 22 24 21 19 14 16 15 13 16 14 12 12 15 14 15 15 14 16 11 13 15 13 9 12 11 11 10 12 14 16 20 19 18 17 19 20 18 17 18 19 21 21 18 16 16 17 17 18 18 17 18 19 19 20 21 21 21 21 21 21 20 20 19 17 16 17 17 17 18 18 17 17 17 17 16 16 16 14 19 18 17 17 17 18 17 17 16 16 14 13 12 13
20 22 13 24 22 22 22 21 18 11 16 15 18 19 14 17 16 15 15 15 10 12 13 15 12 17 15 14 14 11 13 10 13 15 19 20 20 19 19 19 20 19 17 18 19 21 22 17 16 16 16 17 17 17 18 18 19 19 20 20 20 20 20 20 20 19 19 19 18 17 17 16 16 16 17 17 17 17 16 16 15 15 16 19 16 17 16 16 17 16 15 14 14 13 12 11 13
21 22 23 29 20 21 22 20 19 17 17 14 16 16 15 14 17 19 17 15 15 12 13 11 11 12 15 13 16 12 14 12 15 18 19 20 19 18 17 18 20 19 17 18 20 21 21 19 17 17 16 16 16 17 17 17 17 18 18 19 19 19 19 20 20 20 19 18 18 18 17 17 17 17 16 17 17 16 15 15 15 15 16 17 17 16 16 16 15 14 13 14 13 12 11 11 13
23 25 15 25 20 23 22 18 18 14 16 16 15 15 15 17 16 19 16 15 12 11 14 11 14 12 12 14 15 11 12 14 17 20 19 20 19 18 18 17 20 19 20 17 18 20 23 20 19 17 16 15 15 15 16 16 16 17 17 18 17 18 18 18 18 18 18 18 18 18 17 17 17 16 16 17 17 16 16 15 15 16 15 16 16 16 16 15 14 13 14 14 13 12 11 11 14
20 24 21 23 23 22 17 17 15 14 14 14 15 10 12 14 15 18 17 18 13 12 12 15 13 14 11 13 14 13 13 14 16 19 19 20 20 17 17 18 18 18 18 18 17 18 21 21 19 18 17 17 16 16 16 16 17 16 17 17 17 17 17 16 17 16 16 16 16 16 16 16 16 16 16 17 18 17 16 15 15 15 15 15 15 15 16 15 14 14 14 14 13 12 10 10 12
19 18 22 22 19 17 13 16 14 11 15 16 12 14 11 12 13 14 14 13 10 12 11 11 13 11 11 11 14 12 14 14 16 19 19 19 19 18 15 17 18 18 18 18 17 18 19 20 21 20 18 18 16 16 16 18 18 17 17 17 16 16 16 16 16 16 16 16 15 15 15 15 15 16 17 17 18 18 17 16 15 15 15 14 15 15 14 14 14 15 15 14 13 12 12 12 12
20 20 18 18 12 16 19 16 15 19 18 18 13 11 9 10 10 10 15 14 11 13 14 10 10 10 13 12 14 14 15 15 19 18 19 18 17 17 17 18 18 17 17 17 17 18 19 20 20 19 21 21 21 18 16 17 17 16 17 16 16 16 16 16 16 16 15 15 15 15 15 15 15 16 17 17 17 18 17 16 16 14 14 14 14 14 13 14 15 15 15 14 13 13 13 14 16
19 13 18 16 19 16 15 18 18 16 21 15 13 11 11 12 10 13 12 13 14 12 15 12 12 15 13 15 15 15 17 16 19 18 18 18 17 18 19 19 18 17 16 16 17 19 19 19 18 20 17 20 21 19 19 20 17 18 17 17 16 16 15 16 16 16 15 15 15 15 15 15 15 16 17 17 17 18 17 16 16 14 15 15 14 13 13 14 15 15 15 15 14 14 14 15 15
15 16 20 18 19 18 21 15 12 14 23 14 13 10 12 12 11 9 13 13 16 12 11 14 11 14 12 11 14 20 17 17 19 19 20 19 19 18 19 18 17 17 17 15 16 18 18 19 17 20 17 18 17 18 19 19 17 17 18 17 16 16 16 15 15 15 15 15 15 15 15 18 17 19 18 21 18 18 16 16 16 14 14 14 13 13 12 14 16 16 15 15 15 14 13 13 14
11 17 16 16 20 17 20 18 19 15 21 16 13 13 10 11 11 13 10 11 15 14 12 12 14 9 12 13 20 22 18 19 19 21 21 20 20 19 19 18 19 17 16 15 15 17 20 20 19 15 16 17 16 17 19 19 19 18 17 17 16 15 15 15 15 15 15 15 15 15 15 16 17 19 20 20 17 20 18 17 15 15 14 14 14 13 13 14 16 16 15 16 16 13 12 12 14
15 19 13 15 18 15 18 15 19 15 14 15 14 13 10 11 12 13 13 15 13 13 13 15 13 15 13 17 21 21 20 21 21 21 21 21 20 20 19 17 18 19 17 17 15 14 14 15 14 15 15 15 15 23 22 21 18 14 19 19 18 18 15 14 17 17 14 18 13 16 14 16 15 18 18 14 18 21 21 18 16 15 14 15 15 14 13 14 16 16 16 16 15 12 15 17 15
17 10 16 15 15 20 14 16 11 12 19 11 10 11 10 11 14 15 14 13 13 15 14 14 15 17 16 17 20 21 21 20 20 19 21 21 19 19 19 18 18 19 18 17 16 14 12 12 13 16 15 14 13 13 20 18 18 17 18 17 17 12 15 16 15 15 15 15 14 15 13 12 13 13 14 15 16 15 22 17 16 15 14 14 15 14 13 15 16 16 16 15 14 13 18 13 13
11 17 11 14 14 12 14 13 14 14 12 11 12 11 10 11 9 15 12 10 11 12 17 14 14 19 17 17 19 20 20 20 20 20 20 20 20 18 17 18 19 17 16 15 15 12 11 9 12 14 14 14 13 13 18 17 15 15 17 17 15 13 12 14 14 13 13 13 14 13 13 12 12 14 13 16 17 20 22 17 17 17 15 13 16 14 14 15 16 16 15 14 12 10 13 12 12
13 18 12 16 11 14 11 12 15 13 12 14 11 9 12 11 10 13 13 13 15 15 11 12 21 22 21 19 18 20 20 20 19 18 19 20 18 17 18 17 20 16 15 15 15 13 10 10 11 12 13 13 13 13 13 13 14 14 14 15 15 13 13 13 14 13 13 13 13 12 15 10 14 14 15 15 15 17 18 19 20 17 18 18 15 17 17 19 16 17 15 15 11 11 13 12 10
14 15 14 15 12 15 16 13 16 13 11 13 11 13 13 13 9 10 14 15 15 15 14 12 12 18 23 23 20 20 21 20 20 18 19 18 19 17 15 17 16 16 15 15 15 14 10 11 11 13 13 13 14 12 12 13 14 13 13 13 13 14 13 13 13 14 14 13 12 13 12 11 13 14 14 13 14 14 14 14 14 14 15 17 16 18 17 16 15 14 13 11 10 10 11 12 11
17 15 13 14 16 18 13 14 13 12 11 12 13 11 13 11 10 9 13 14 13 12 12 12 14 17 17 18 18 20 20 21 19 19 18 18 19 17 17 17 17 16 14 16 13 12 9 10 12 13 17 13 14 13 12 13 12 13 13 13 13 13 13 14 13 14 14 13 13 14 13 12 12 14 14 12 12 13 14 14 14 14 14 16 16 17 16 16 14 13 11 10 9 9 10 11 11
16 14 12 13 13 19 18 17 11 11 14 13 9 14 11 12 10 9 10 11 12 11 13 14 17 18 18 19 18 18 19 19 18 16 16 17 18 17 17 18 14 10 12 12 11 9 10 12 12 14 15 13 13 14 13 13 13 14 14 13 13 12 13 13 13 13 14 14 12 12 12 13 11 14 14 13 13 13 14 13 13 15 14 14 13 14 17 16 15 14 11 10 10 9 10 9 9
13 12 9 13 13 14 13 14 13 10 8 11 13 11 9 9 11 13 11 11 11 13 15 17 16 15 15 15 17 17 17 17 18 16 13 16 16 17 16 14 16 13 13 11 13 15 11 14 14 18 18 15 13 13 13 13 13 14 15 15 13 12 13 12 12 13 13 13 13 12 11 13 12 12 13 14 13 13 13 14 13 13 14 16 13 12 15 15 14 13 11 11 9 8 10 10 8
10 13 14 13 13 12 13 9 8 11 12 15 16 12 10 10 9 11 11 12 12 13 16 17 16 16 15 14 15 15 16 16 18 16 16 15 15 16 16 18 18 15 17 13 14 14 13 13 15 18 19 17 14 13 14 14 15 15 15 14 15 14 12 12 12 13 12 12 12 10 11 11 11 11 12 13 14 11 11 13 12 13 14 16 14 13 12 14 13 12 12 12 10 10 11 9 8
13 14 12 14 13 11 9 10 12 11 12 11 15 12 11 12 12 11 11 12 13 14 15 15 15 15 14 15 14 15 16 16 17 17 16 14 15 17 18 18 20 20 17 17 16 15 18 13 14 15 14 15 14 14 13 14 14 14 14 14 14 14 13 12 12 12 12 11 11 10 10 11 11 13 13 12 13 13 13 14 13 14 15 15 14 14 11 11 11 10 11 11 12 13 11 11 10
13 14 12 11 10 9 9 13 12 13 13 10 16 12 9 10 14 16 15 14 13 14 16 15 14 16 16 14 15 14 16 15 17 17 18 17 18 19 18 18 18 18 17 17 16 16 14 15 14 16 18 17 15 15 14 14 14 14 13 14 14 13 13 12 13 12 11 11 11 11 10 10 11 12 12 14 13 14 15 14 13 13 14 14 13 13 12 10 10 11 11 11 10 10 12 11 9
12 11 17 12 11 15 11 10 11 9 11 10 14 14 15 16 12 17 16 14 14 14 15 15 15 15 16 16 16 17 19 16 17 17 16 17 16 17 18 16 17 17 15 14 14 12 15 16 15 17 17 16 16 15 15 14 14 15 15 14 14 15 13 12 12 12 12 11 10 11 10 10 10 11 12 12 13 14 14 13 14 12 12 11 11 11 12 11 10 10 10 10 10 10 11 10 10
12 13 16 15 18 20 16 10 9 10 11 14 11 21 17 18 17 17 16 16 15 15 16 17 16 15 16 16 17 17 16 16 17 16 17 17 16 17 17 18 17 13 14 12 15 17 18 16 16 15 17 17 15 14 14 16 15 13 12 13 13 13 12 12 12 12 11 11 11 11 11 11 11 11 12 12 13 13 14 14 13 13 12 11 11 10 11 13 11 11 12 11 9 11 11 9 9
17 10 13 21 15 16 14 12 11 13 11 11 13 22 16 19 17 17 14 15 18 19 17 16 16 15 15 16 16 16 15 15 16 16 15 16 16 17 17 17 18 17 15 12 14 17 17 17 15 11 13 16 16 16 15 16 18 12 13 13 13 11 12 12 12 12 12 11 12 12 12 11 11 11 11 12 12 12 15 14 13 13 13 12 12 13 12 10 10 11 12 12 10 10 10 9 9
11 19 22 17 21 18 16 12 13 16 15 12 14 21 18 19 17 14 15 16 14 15 17 17 17 17 16 16 16 16 15 16 16 16 16 16 16 18 18 18 19 18 19 19 19 14 16 17 15 15 13 14 16 18 18 18 19 13 12 11 12 12 13 13 12 12 12 12 11 11 12 11 10 11 11 11 11 13 14 14 14 12 12 12 12 11 11 12 14 13 11 12 13 16 17 14 12
14 20 12 14 15 14 15 15 11 10 17 14 20 19 10 18 14 14 13 15 16 17 17 16 16 15 16 16 16 16 15 16 17 17 16 17 19 19 20 19 20 19 19 18 16 16 15 14 15 15 15 18 13 14 15 15 16 16 13 11 12 12 13 13 12 12 11 11 11 11 12 12 11 12 12 12 11 12 12 12 13 13 12 12 13 11 11 11 12 13 13 17 16 18 22 11 9
13 12 12 11 13 13 18 17 11 10 15 18 19 24 14 16 14 13 14 15 16 17 17 17 17 17 16 16 16 17 17 17 20 20 20 21 19 19 18 17 18 19 19 20 18 19 17 17 16 15 16 14 14 14 14 15 18 14 13 13 11 13 12 12 12 12 13 12 11 11 11 13 12 13 12 12 12 11 11 11 11 12 14 12 12 12 12 11 10 10 14 19 19 17 14 9 8
9 8 11 18 12 11 14 10 14 11 15 19 17 22 20 16 13 13 14 14 16 18 17 16 17 17 17 17 18 17 19 19 18 19 20 20 19 19 20 18 18 18 19 20 20 20 19 19 18 17 16 15 13 14 14 15 15 11 14 11 12 12 11 11 11 13 13 12 13 11 12 13 12 13 13 12 12 11 11 11 11 11 12 12 12 12 11 11 10 9 10 14 15 17 8 9 9
9 11 12 12 13 13 12 14 10 12 15 18 19 22 20 18 16 13 15 16 18 18 17 18 17 17 17 18 18 19 19 19 18 17 18 19 19 19 20 20 19 18 18 19 19 19 19 19 18 17 17 16 14 14 14 14 14 14 15 12 13 13 13 13 13 13 12 12 13 12 13 13 14 13 12 12 11 11 11 10 10 10 11 13 13 13 12 11 11 10 10 10 9 9 9 9 9
9 9 11 9 14 12 10 9 10 9 15 18 19 20 18 16 15 14 15 17 18 20 20 19 18 18 18 18 19 18 18 18 17 17 18 17 19 20 19 19 20 19 19 19 19 19 19 21 20 19 18 18 18 17 17 17 16 18 18 15 15 15 15 13 13 12 12 12 12 13 12 13 14 13 13 12 11 10 11 10 10 11 11 12 12 13 12 11 10 9 10 9 10 9 9 9 8
11 11 13 13 14 12 13 11 11 10 15 12 13 17 20 19 16 15 14 17 22 21 20 19 19 18 18 17 18 18 17 17 18 17 18 18 20 18 18 19 18 20 19 18 19 20 20 20 19 19 17 18 18 17 16 16 17 19 14 14 14 15 14 14 14 13 13 12 11 12 13 13 14 14 13 12 11 10 10 11 11 11 11 12 11 11 11 11 11 11 10 11 10 10 10 8 7
11 17 10 18 16 10 12 9 9 10 14 12 11 16 17 15 16 17 17 20 19 18 18 20 18 19 20 19 18 17 16 17 18 19 18 20 19 18 19 18 18 19 17 18 18 19 18 19 20 17 18 18 18 17 18 18 15 13 14 12 14 12 11 11 11 11 12 12 11 11 12 12 13 14 14 13 12 11 11 10 10 10 11 11 12 12 12 12 12 11 10 11 10 11 10 8 9
16 15 19 20 19 16 16 16 10 13 14 16 14 17 14 12 14 16 17 19 20 16 16 18 18 19 19 18 17 17 18 18 19 20 21 20 19 19 17 17 16 16 16 17 19 19 20 20 18 18 18 17 17 19 17 15 14 13 13 12 11 11 12 13 12 11 13 12 12 12 12 12 12 13 14 14 13 12 11 11 10 11 11 11 11 12 12 13 12 12 11 11 11 12 11 9 9
11 13 15 18 10 10 19 15 8 10 12 13 15 21 22 18 17 19 18 17 18 18 17 20 20 20 19 17 18 17 17 18 19 19 20 21 21 21 20 18 17 18 18 19 20 20 20 20 20 18 18 18 17 16 17 15 15 15 14 13 13 13 12 14 14 15 15 14 13 13 13 12 12 13 13 14 13 13 13 11 10 10 10 10 11 12 13 15 12 13 13 12 12 13 12 10 11
14 13 12 13 8 14 8 9 14 19 19 15 14 23 21 14 15 16 14 17 18 17 18 21 19 19 19 21 20 18 18 17 19 19 22 22 22 20 19 18 19 19 21 21 20 20 18 19 19 18 18 17 18 17 17 18 17 17 18 17 18 17 17 17 17 16 17 16 15 12 12 13 12 11 12 12 13 13 14 14 12 11 11 11 14 14 13 12 13 14 15 14 14 13 14 12 11
15 15 11 9 10 11 10 14 13 19 19 18 12 20 21 13 15 14 13 15 16 16 18 21 19 20 20 20 19 21 21 20 18 18 20 21 21 21 21 21 21 20 20 19 20 19 19 19 20 21 19 18 18 17 19 18 18 19 18 17 16 17 16 16 14 13 14 14 13 13 13 13 13 13 12 13 13 13 13 13 14 14 13 13 15 14 14 16 15 14 14 14 15 12 13 15 13
15 15 11 10 11 11 11 14 15 22 13 16 13 19 22 23 16 15 11 14 17 17 19 21 20 19 20 19 18 17 19 20 21 21 21 21 22 23 23 22 22 22 19 19 19 20 20 20 19 20 19 19 19 18 20 21 20 19 18 17 17 17 16 15 14 14 12 13 14 14 13 14 14 14 14 15 14 15 14 14 14 14 14 13 14 15 16 15 14 11 12 13 13 13 13 15 14
14 11 10 11 10 9 12 15 16 15 17 21 17 14 22 23 18 15 13 20 20 21 21 20 20 19 19 19 20 19 18 19 19 21 21 22 23 23 22 23 22 21 20 20 21 20 20 20 19 19 20 19 20 19 20 20 20 19 19 18 17 17 16 15 15 15 15 14 14 14 14 14 15 15 15 16 16 16 16 15 15 15 15 14 15 16 15 13 13 12 13 13 14 14 14 14 15
14 12 16 14 11 12 13 18 14 10 16 16 12 9 24 25 19 15 15 18 20 19 21 22 20 17 16 18 19 19 16 16 18 18 20 22 22 22 22 21 21 22 20 20 19 19 19 19 20 19 20 20 20 20 21 21 20 20 20 19 18 18 17 17 16 16 16 15 16 15 15 16 15 16 15 16 16 17 17 16 17 16 15 15 15 14 13 14 15 15 15 14 13 14 14 15 16
16 14 15 16 16 15 13 16 14 16 15 17 12 10 17 26 17 15 14 19 17 18 14 14 15 15 16 17 18 18 17 16 16 18 18 21 21 21 21 22 21 21 19 20 20 20 19 20 20 20 20 20 19 21 21 21 21 20 20 19 20 19 18 17 17 17 17 16 16 17 16 16 15 15 15 15 15 17 16 16 16 16 15 14 15 15 15 15 16 15 15 14 14 15 15 14 14
16 19 20 16 19 15 18 16 15 16 19 16 11 8 12 20 12 14 16 11 11 12 15 16 16 17 20 18 19 17 14 14 13 16 17 18 20 20 21 22 22 22 21 22 21 21 21 21 21 21 21 21 20 21 21 21 21 20 18 18 18 17 17 18 19 18 18 17 16 16 16 16 15 15 15 15 16 16 16 16 15 15 15 15 16 15 14 15 14 13 13 14 15 15 15 16 15
20 19 19 19 16 15 16 21 17 19 14 16 12 11 16 24 23 21 18 17 16 14 16 19 19 20 19 15 17 12 12 13 15 15 16 18 20 22 22 22 22 22 24 23 24 23 22 22 22 23 22 21 20 20 20 20 20 19 20 19 18 18 17 17 17 17 16 17 17 17 16 16 16 16 16 16 15 15 15 15 15 16 16 16 15 15 15 14 13 15 15 16 18 17 17 17 17
23 24 20 20 19 17 12 16 13 18 15 11 12 10 22 20 20 13 17 15 11 11 14 16 17 18 19 19 16 14 13 13 14 14 16 18 19 20 21 22 23 24 23 24 25 24 23 23 23 23 22 22 21 20 21 21 20 20 19 19 19 19 18 18 17 17 18 17 17 16 16 16 16 15 15 15 15 16 16 15 14 14 15 15 15 15 14 13 14 15 14 15 15 16 16 16 17
27 20 21 21 21 22 14 18 16 15 12 15 14 13 14 15 18 11 11 15 16 13 14 15 16 17 17 17 17 17 15 13 14 15 16 17 18 18 20 21 22 23 23 25 24 25 24 23 24 24 22 22 22 21 21 21 21 20 19 19 19 18 19 19 18 17 16 16 15 16 16 15 15 14 15 14 14 14 14 14 14 15 15 15 15 15 15 15 14 14 15 14 15 14 14 15 16
16 15 16 20 25 15 23 14 17 14 14 14 19 16 11 17 16 15 15 14 17 14 13 13 14 14 13 14 15 14 14 14 14 14 15 15 16 18 19 20 21 22 23 24 25 25 25 25 25 25 24 23 23 22 21 21 21 20 19 19 19 18 18 18 18 17 16 16 15 16 15 14 14 14 14 14 13 14 14 14 15 15 15 15 15 16 15 15 14 15 15 15 14 14 15 16 16
22 21 25 18 14 18 14 8 12 7 16 26 13 20 21 16 22 16 13 11 14 12 12 12 11 11 12 14 14 13 14 13 13 15 15 14 15 16 18 19 20 21 23 24 26 26 25 25 25 26 25 22 23 23 23 21 20 20 21 21 20 19 19 19 18 17 16 16 15 15 14 14 14 14 14 14 14 14 15 15 15 15 15 15 15 15 15 15 14 14 16 15 16 14 15 15 16
22 22 20 17 12 14 14 19 12 14 19 19 13 20 19 14 22 14 12 13 14 13 13 12 13 11 12 13 13 12 13 12 12 14 13 13 14 16 17 17 19 20 21 23 24 24 25 24 24 25 25 25 23 23 22 21 21 21 21 22 21 21 21 21 20 18 18 18 17 17 16 16 15 14 14 13 14 14 14 13 15 15 14 14 15 14 14 14 13 15 14 13 14 14 15 15 15
20 18 22 25 18 19 22 18 19 17 19 22 20 19 23 18 20 13 15 15 15 15 12 13 14 12 13 14 14 12 10 11 12 13 13 14 15 15 17 17 17 18 20 21 24 24 23 23 23 24 24 23 22 22 21 22 21 20 21 22 22 23 21 21 20 19 19 19 19 18 18 18 16 15 16 15 16 16 15 16 15 15 15 15 14 14 13 13 13 13 13 13 13 14 15 15 15
12 14 19 11 17 20 15 24 20 23 20 18 19 17 25 16 15 12 15 14 14 15 14 14 14 13 14 14 14 13 11 12 13 13 14 15 15 16 17 17 18 18 19 19 20 22 22 23 23 23 23 22 22 22 22 22 22 21 20 21 22 23 22 22 20 21 21 21 20 20 19 17 17 17 17 16 16 17 16 16 16 15 14 15 15 13 15 13 13 13 14 15 14 15 15 16 16
24 25 25 20 24 12 20 14 22 24 22 21 22 23 22 19 16 15 15 16 15 15 16 15 15 14 13 14 14 13 12 13 14 14 15 16 16 15 15 15 17 18 18 19 20 21 22 22 22 23 24 24 24 24 24 24 23 23 21 22 23 23 22 22 20 21 21 21 20 19 19 17 17 17 16 16 16 16 17 16 16 15 15 14 14 14 13 12 13 14 14 13 15 15 15 14 15
25 27 26 24 23 21 23 25 22 26 29 26 24 28 23 20 13 16 19 17 18 17 16 17 16 16 14 13 13 14 14 14 15 14 14 15 15 15 14 16 15 17 19 20 21 20 20 21 22 23 25 25 24 25 25 24 23 23 22 23 23 22 23 22 20 21 21 21 20 20 19 17 16 17 17 17 18 15 15 16 15 16 16 14 14 14 13 13 13 13 13 13 13 14 15 14 16
Wind_Speed
6 5 3 5 4 5 5 6 9 5 5 6 3 5 5 3 2 5 4 1 4 5 3 2 3 4 1 2 3 5 6 5 3 4 2 4 3 5 6 6 8 11 13 12 10 12 14 15 14 15 14 14 13 13 12 12 12 12 11 11 11 12 12 12 14 14 14 14 15 15 14 14 15 14 13 13 13 12 13 13 13 14 15 15 15 15 15 15 17 16 16 16 16 15 15 14 14
2 2 4 5 5 5 6 2 7 5 5 5 4 1 2 4 5 3 3 4 6 5 1 2 4 5 3 3 2 3 8 10 8 8 6 4 6 7 6 8 10 12 11 12 12 10 12 14 13 14 14 14 14 14 14 13 12 12 12 12 12 12 13 13 15 14 14 14 15 14 14 14 14 14 13 13 12 12 13 14 14 15 15 15 15 15 15 16 16 16 16 16 15 15 14 14 13
2 4 5 5 5 7 1 5 8 6 6 6 4 4 6 6 2 4 3 6 5 0 3 4 4 3 3 3 4 5 3 3 5 6 6 7 8 7 8 9 9 10 11 11 12 12 11 13 12 13 14 14 14 14 14 13 13 13 13 13 13 14 14 14 15 15 14 15 13 13 13 14 14 13 13 13 12 12 13 14 15 15 14 14 14 16 15 15 16 16 15 15 15 14 13 13 13
4 4 5 6 7 5 8 6 7 6 6 4 2 6 5 2 4 1 2 4 1 2 3 5 4 2 3 2 3 2 7 4 4 5 5 7 4 9 9 10 9 9 9 8 10 11 11 14 13 13 14 14 14 14 13 13 13 13 13 13 14 14 15 15 15 15 16 13 12 12 11 13 13 13 13 13 12 12 12 14 14 14 14 14 16 15 14 15 15 16 15 14 14 14 13 12 12
5 4 5 6 7 7 8 6 6 5 8 3 4 7 5 3 1 1 2 2 1 1 3 2 2 3 3 4 3 3 5 5 5 1 5 5 10 10 10 10 9 9 9 9 10 11 13 16 13 13 14 15 14 13 13 13 13 14 14 14 15 15 15 14 15 15 14 12 12 12 11 13 13 12 12 13 13 12 11 12 13 14 13 15 15 14 14 14 15 14 14 14 13 12 11 11 11
5 5 5 6 7 6 4 5 7 8 7 4 4 4 3 1 2 2 1 2 2 2 3 5 2 1 2 5 5 3 5 1 3 4 5 7 10 10 11 10 8 9 9 10 10 10 13 15 13 13 13 14 14 13 13 13 14 14 14 14 15 15 16 15 15 14 14 13 12 11 13 13 13 12 13 12 13 12 12 12 12 12 12 16 15 14 15 14 14 14 14 12 12 11 10 10 10
6 7 6 7 4 5 8 8 8 6 4 1 5 3 4 3 3 2 3 4 4 3 3 4 4 4 4 5 8 7 5 3 3 5 3 11 11 11 11 10 9 9 8 9 10 11 16 14 13 12 13 14 14 13 13 13 13 14 14 15 15 15 16 17 17 16 14 13 12 12 13 13 12 12 12 12 12 12 12 12 12 11 10 14 14 14 14 14 14 13 13 12 10 10 10 8 8
5 8 7 9 7 6 9 8 7 4 4 5 3 6 5 3 3 5 4 6 5 4 6 3 5 5 5 2 1 4 5 4 5 5 10 11 12 11 10 10 11 9 8 9 10 11 15 14 12 12 14 14 13 13 13 13 14 14 15 15 15 16 15 15 16 16 14 13 12 12 13 13 12 12 12 12 12 12 12 11 10 10 9 15 13 13 13 14 13 13 12 11 10 9 9 8 8
7 8 1 8 8 6 8 8 6 2 6 4 6 7 8 8 6 5 6 6 1 4 4 4 3 7 5 5 4 3 5 3 4 9 11 12 12 11 8 11 11 9 8 8 10 11 13 14 12 13 13 13 13 12 12 13 13 14 14 15 14 15 14 14 14 15 15 13 11 12 12 12 13 12 12 12 11 11 11 12 11 11 13 15 12 12 12 13 12 11 10 9 8 8 8 8 8
7 8 8 8 7 8 9 7 6 5 6 5 7 7 6 5 7 8 8 6 6 1 3 3 3 2 4 3 5 4 5 5 7 10 11 12 11 10 10 11 11 11 9 8 10 11 10 15 13 13 13 12 11 11 12 12 13 14 14 14 14 13 13 14 14 14 13 13 12 12 12 11 11 13 12 11 11 11 10 9 10 11 13 14 14 13 12 11 11 10 9 8 7 7 7 9 9
7 8 5 9 7 9 8 6 7 3 6 6 6 6 6 7 7 8 7 6 2 2 4 3 5 3 2 3 3 3 6 6 9 11 11 11 10 9 9 9 11 10 11 10 10 10 11 11 15 13 12 12 11 11 11 11 12 12 13 11 13 13 13 13 13 13 12 12 11 12 11 12 12 13 13 12 12 11 10 10 11 12 11 13 13 12 11 10 9 8 8 7 6 5 5 8 10
6 8 6 8 9 8 6 5 5 4 6 5 6 2 1 5 6 7 6 7 5 4 3 4 1 2 1 2 3 5 5 7 9 10 10 10 9 9 8 8 10 9 11 10 9 10 11 11 9 12 14 13 11 11 12 11 10 11 13 13 14 13 13 12 12 12 12 11 11 11 10 11 13 13 13 13 12 11 10 11 11 11 12 12 12 11 10 9 8 7 7 6 5 5 5 8 9
6 6 9 8 6 6 3 6 4 2 5 6 3 4 1 3 5 4 4 4 1 2 3 1 3 3 1 1 3 5 7 7 8 11 10 9 8 8 7 8 10 10 10 9 8 10 11 11 10 9 11 14 13 12 12 14 10 10 12 14 13 13 13 13 12 11 12 12 12 11 11 10 12 13 14 13 13 11 11 10 10 9 10 11 11 10 9 9 8 7 7 6 4 4 7 8 10
7 6 6 6 2 5 6 5 5 8 5 8 3 3 0 1 2 3 1 3 2 1 4 3 1 1 3 2 4 4 5 7 10 11 8 8 8 8 8 8 10 9 9 8 9 8 8 8 6 7 11 11 11 11 11 12 14 12 13 11 13 13 13 13 13 13 12 12 11 11 12 12 12 13 14 13 13 12 12 11 10 10 10 11 11 10 9 8 7 7 8 7 5 5 8 10 10
7 2 6 4 6 6 4 5 7 6 8 6 5 3 3 4 3 2 2 2 5 4 6 4 4 6 3 4 2 3 7 9 10 9 8 8 9 9 8 8 8 8 7 7 9 7 5 7 6 3 9 10 11 9 9 10 12 13 14 13 13 13 13 13 13 13 12 12 12 12 12 12 12 13 14 14 13 13 13 12 11 10 12 12 11 10 8 7 7 8 8 8 7 8 10 10 9
4 4 6 5 6 6 6 3 3 4 8 6 5 3 3 4 3 1 5 4 4 4 1 3 3 4 1 2 4 9 10 10 10 9 9 11 10 9 8 7 7 7 6 4 8 6 5 7 6 9 8 9 8 9 9 10 11 12 13 13 13 13 12 12 12 12 12 12 12 12 12 11 13 12 14 13 14 13 12 11 11 10 11 12 11 10 8 7 8 8 8 7 8 9 10 9 9
3 5 5 5 8 6 7 4 7 3 9 7 3 3 1 3 4 5 2 2 3 5 4 3 4 0 4 5 7 9 9 10 11 10 10 10 8 8 7 7 6 7 3 3 5 8 9 9 10 7 7 8 8 8 8 9 6 11 11 12 12 12 12 12 12 12 12 11 10 10 11 8 9 9 10 10 13 10 13 13 12 11 10 11 11 10 8 7 8 8 7 7 7 9 8 9 9
4 6 3 5 5 2 5 4 3 4 5 3 3 1 1 1 3 5 5 4 5 5 4 6 6 7 5 6 7 9 12 13 12 11 10 9 7 7 7 7 7 7 6 6 5 5 6 8 7 7 7 7 8 10 5 7 7 8 10 10 9 10 11 11 10 9 10 9 9 8 6 7 6 8 8 10 8 12 12 13 12 12 11 12 12 10 8 8 8 8 7 6 7 8 12 7 7
5 1 5 3 4 8 3 6 1 4 10 4 3 1 2 4 1 4 4 4 4 4 3 3 5 5 5 6 9 10 12 11 11 11 11 11 8 8 7 7 7 8 7 6 5 6 4 4 5 6 7 6 6 8 9 5 8 8 9 8 7 8 9 9 7 8 7 7 6 5 5 4 4 6 6 7 8 11 13 13 13 12 11 11 12 11 9 7 8 8 6 6 7 10 8 3 5
2 6 1 4 3 3 3 2 3 3 3 3 3 0 3 3 1 4 4 1 1 4 1 3 3 4 6 7 10 11 11 10 11 11 11 9 9 9 8 9 8 7 6 5 5 4 4 1 4 6 6 6 5 4 9 7 7 7 7 7 6 5 5 5 6 5 5 6 5 4 4 4 5 5 9 12 13 10 11 14 14 13 12 10 13 10 9 7 7 6 5 6 9 6 3 3 3
4 6 1 6 3 4 2 1 3 5 4 5 3 2 4 2 1 2 1 5 7 7 4 2 3 5 6 9 10 11 10 10 10 9 10 9 9 7 6 7 9 6 5 5 5 5 4 1 1 4 4 5 4 4 4 5 5 5 5 6 6 5 5 5 5 5 5 5 5 4 5 3 5 5 7 7 6 7 8 8 9 7 8 9 11 8 7 8 8 7 6 7 2 2 3 3 2
5 5 5 4 2 4 2 5 9 6 4 5 2 4 5 2 1 2 2 6 5 5 3 4 4 8 8 10 9 9 11 10 11 10 10 10 9 9 4 8 5 4 4 5 5 4 4 2 5 1 5 5 4 4 4 5 5 5 5 4 5 5 5 5 5 5 5 5 4 4 4 4 4 5 6 5 6 6 6 6 5 5 6 8 7 7 7 7 6 5 4 3 1 2 3 3 3
5 6 3 5 6 7 5 5 5 5 3 3 3 3 1 3 1 2 2 4 4 4 3 5 7 9 9 9 8 8 10 11 9 9 10 10 10 9 10 8 7 5 3 4 5 4 3 3 5 3 7 5 6 4 4 4 4 5 5 5 5 5 5 6 5 5 5 5 5 5 4 4 5 5 5 5 5 5 5 5 5 5 6 6 7 7 7 7 5 4 3 2 1 1 3 3 3
6 4 4 5 5 7 6 7 5 4 4 3 3 2 4 1 3 2 2 3 4 4 5 7 9 10 9 11 9 8 9 9 9 7 7 8 11 10 9 8 6 4 4 4 3 3 3 5 5 3 5 5 6 6 5 4 5 6 6 5 4 4 5 5 5 5 6 6 5 5 4 4 4 5 5 5 4 5 5 5 5 6 5 5 5 5 7 6 6 5 4 4 3 1 2 2 2
4 2 2 5 5 4 4 5 5 2 1 1 2 3 2 1 2 6 4 3 4 6 7 9 9 8 8 7 7 7 8 8 7 7 6 6 9 10 9 6 6 4 2 3 4 4 5 5 6 6 6 8 5 5 5 4 5 5 6 6 5 6 5 5 5 6 5 5 5 5 5 5 4 4 5 5 4 4 5 5 5 5 6 6 5 4 6 6 5 5 4 4 3 2 1 1 1
2 4 5 5 5 5 4 2 2 2 2 3 4 2 4 3 2 2 4 5 5 6 8 9 8 7 7 7 7 7 7 8 8 7 7 6 8 9 9 8 8 7 5 4 5 5 6 6 8 9 10 9 5 5 5 5 6 7 6 6 6 6 4 5 5 5 4 4 4 3 4 4 4 4 4 4 5 4 4 5 4 5 5 6 6 5 4 5 5 4 4 4 2 2 1 2 1
5 5 5 6 4 3 2 2 3 2 3 4 3 2 4 5 5 3 5 5 6 7 8 8 8 7 6 6 5 6 7 7 8 7 7 7 8 7 9 10 11 10 9 8 7 6 7 7 7 8 7 6 5 6 5 6 6 5 6 6 6 5 5 5 4 4 4 4 3 3 3 4 4 5 5 4 5 5 5 5 5 5 6 6 5 5 4 4 3 3 2 0 1 1 0 0 1
6 6 5 4 2 1 1 2 3 3 3 3 2 1 1 3 5 2 7 6 5 7 8 7 7 8 7 7 5 5 5 6 7 8 9 8 7 8 9 8 10 10 9 9 7 6 5 5 5 4 4 5 6 5 5 6 6 5 5 5 5 5 6 5 4 4 4 3 3 3 2 3 3 4 4 5 5 5 6 6 5 5 5 5 5 5 4 2 3 2 2 3 3 2 1 2 1
5 4 7 5 4 6 3 2 2 2 2 3 2 4 7 7 4 9 8 6 6 6 7 7 7 7 7 8 7 6 6 8 8 8 8 8 7 7 10 8 8 8 6 6 5 6 4 3 2 4 2 4 7 5 5 5 5 5 5 5 5 5 5 4 4 4 4 4 3 3 3 2 3 4 4 4 5 5 5 5 5 4 4 4 4 3 4 4 2 2 3 3 3 2 2 2 2
4 5 6 6 8 9 8 3 2 3 3 3 3 8 6 6 9 8 8 7 7 7 7 7 7 6 6 7 7 7 7 8 8 7 8 7 7 9 9 8 8 6 5 4 5 5 2 1 2 3 5 2 5 7 6 6 6 5 4 5 5 5 4 4 3 3 3 3 3 3 3 3 3 3 5 5 4 5 5 5 5 5 4 3 3 2 3 3 3 2 1 2 2 3 4 3 3
6 2 4 8 5 3 4 3 3 5 4 4 5 8 3 9 8 9 6 7 7 6 6 7 7 6 5 6 6 6 7 7 7 8 8 8 7 7 9 9 9 9 6 4 3 4 4 3 3 3 2 4 5 5 6 7 10 4 3 4 4 4 4 4 4 4 4 3 4 4 4 3 3 3 3 4 4 4 5 5 4 5 4 4 3 3 3 3 2 2 2 3 2 2 3 3 2
3 6 7 6 8 6 7 4 4 6 5 4 6 7 2 6 7 6 6 6 5 5 6 6 6 6 6 6 6 6 6 8 8 8 9 9 8 7 8 9 10 10 10 10 9 6 4 7 8 8 5 5 5 5 4 7 10 6 3 2 3 4 4 4 4 4 4 4 4 4 4 4 3 3 3 4 3 4 5 5 5 4 5 4 2 3 3 3 2 2 3 2 1 2 5 5 4
4 7 3 3 4 2 6 7 3 2 2 6 10 6 2 8 6 6 5 6 5 5 6 6 7 7 6 5 5 6 6 7 8 9 9 8 8 8 8 9 9 10 10 10 9 8 7 5 4 6 6 5 7 7 7 8 9 7 6 4 4 4 4 4 4 4 3 3 3 3 4 4 4 3 3 3 3 3 3 4 5 5 5 4 4 3 4 3 3 2 2 2 2 1 9 4 3
3 2 1 3 4 1 3 8 3 3 6 6 10 9 5 7 6 5 6 5 6 5 6 7 7 7 7 6 7 7 7 8 9 10 11 11 9 10 8 8 9 10 9 10 10 8 7 4 5 5 7 8 8 8 6 5 6 7 5 6 4 3 4 3 3 4 4 3 3 3 4 4 3 3 3 3 3 2 2 3 3 5 6 4 4 4 4 3 3 3 5 1 2 4 7 1 2
1 1 3 6 3 3 5 1 6 4 7 9 8 11 10 5 5 5 5 6 6 6 6 6 7 7 7 8 8 9 9 9 9 9 11 11 10 10 9 9 9 9 8 10 10 10 8 8 7 8 8 8 7 8 6 5 5 3 7 4 4 4 3 3 3 3 3 3 3 3 4 4 4 4 3 4 3 3 2 2 3 3 5 4 4 4 4 4 3 3 3 6 7 8 3 2 1
2 3 3 3 4 3 1 5 2 3 6 8 9 9 9 8 6 5 6 7 7 7 6 6 7 7 8 8 8 9 9 10 8 9 10 10 9 9 10 10 9 9 9 8 10 9 10 11 10 9 9 8 8 7 7 6 3 2 6 3 4 4 3 3 3 3 3 3 3 3 4 4 4 4 4 4 3 3 3 2 2 2 4 5 5 5 5 4 4 3 3 3 2 2 2 2 2
1 2 4 0 5 3 2 2 3 2 6 6 7 8 9 6 5 5 6 7 8 8 9 8 8 8 8 8 9 9 9 9 9 9 10 10 10 10 9 9 10 10 10 10 10 11 11 10 11 11 9 9 8 8 8 5 3 4 9 6 4 4 4 3 3 3 3 3 3 4 4 4 4 4 4 4 3 3 3 2 2 2 3 4 4 5 4 3 2 2 2 2 2 2 3 3 1
4 3 5 4 5 1 4 3 2 1 6 1 1 7 8 8 7 6 5 8 9 9 9 10 10 9 8 9 9 9 8 7 10 9 10 10 9 9 9 8 9 10 8 9 11 11 11 11 11 9 8 9 9 8 7 6 7 8 5 4 4 4 5 5 4 4 4 3 4 3 4 4 4 4 4 4 3 3 3 2 2 3 3 3 3 4 4 3 3 3 3 3 2 2 2 1 0
3 6 2 6 4 1 2 2 2 1 4 3 2 6 5 6 7 7 8 9 8 8 9 9 9 10 9 9 9 8 8 8 9 10 10 10 11 10 8 8 9 9 8 9 10 11 10 10 9 9 9 9 9 9 8 8 7 6 5 3 4 3 3 3 4 4 4 4 4 4 4 4 4 4 4 4 3 3 3 2 2 2 3 3 4 4 4 5 4 4 4 3 3 3 2 1 2
6 5 7 7 8 5 3 6 1 2 3 6 6 7 5 3 5 7 8 8 8 8 8 8 8 8 9 9 8 8 9 9 10 11 12 11 11 10 9 8 8 8 8 9 10 11 9 9 9 10 9 10 9 10 9 7 6 5 4 3 4 4 4 4 3 4 5 5 5 5 5 4 4 4 4 4 4 3 3 3 3 3 3 3 3 3 4 5 4 4 4 3 3 4 4 3 2
3 5 5 7 2 1 8 5 1 2 4 5 6 8 8 7 7 7 8 7 7 8 8 9 10 10 9 8 9 8 9 9 10 11 11 11 12 11 11 10 9 9 8 9 10 10 9 10 10 10 9 10 8 8 9 7 6 6 5 5 4 4 3 5 6 6 6 6 5 6 5 4 4 4 4 4 4 4 3 3 3 3 3 3 3 3 3 3 4 4 4 4 4 4 4 3 3
4 6 5 5 2 6 1 2 6 6 7 3 5 7 7 3 5 6 5 6 8 7 9 10 10 10 10 11 11 9 9 9 10 10 12 12 12 11 11 10 10 9 9 9 9 10 10 9 10 10 9 9 9 10 10 9 8 7 7 6 7 6 6 6 7 7 7 6 6 5 5 5 5 4 4 4 4 4 4 4 3 3 3 3 3 2 2 2 3 4 4 4 5 5 5 3 4
5 5 2 2 4 3 3 6 4 7 7 6 4 7 6 3 6 5 4 6 7 6 9 9 9 9 10 10 9 10 10 10 10 10 10 12 12 12 12 11 11 10 10 9 9 9 10 9 9 10 9 9 9 10 10 9 9 9 9 8 6 6 6 5 5 5 5 5 4 5 5 5 5 5 5 5 5 5 5 4 4 4 4 3 3 3 3 3 3 4 3 4 4 4 4 5 5
4 7 1 3 4 4 4 6 6 8 5 7 5 7 8 8 6 5 4 6 8 8 9 9 9 10 10 9 8 8 9 10 10 12 12 12 13 13 13 13 12 11 10 9 9 9 11 11 10 11 9 9 9 9 11 10 9 10 10 8 7 7 6 5 6 5 4 4 5 5 4 5 5 5 5 6 6 6 6 6 5 5 5 5 4 4 4 3 3 2 3 3 4 4 5 6 6
3 3 3 4 3 2 5 5 6 5 6 7 6 6 7 8 6 6 5 10 10 11 10 10 10 10 9 9 9 8 9 10 10 10 12 13 13 13 13 13 13 12 11 11 11 10 10 10 10 10 11 10 10 11 11 11 10 10 9 8 8 7 7 6 6 6 6 5 5 5 5 5 5 6 6 7 7 7 7 6 6 6 6 6 6 5 5 5 5 3 3 4 4 4 4 4 5
6 4 3 2 4 4 5 7 5 2 5 6 3 1 8 8 8 5 7 7 9 8 9 9 7 5 5 6 7 5 6 7 9 9 11 12 13 13 13 12 12 11 11 11 10 9 9 10 11 11 12 11 10 12 11 12 12 10 10 9 10 9 8 7 7 7 6 6 7 6 6 6 6 6 7 7 8 8 8 7 7 7 6 6 5 6 5 5 5 5 5 5 4 4 4 4 5
5 6 6 6 6 6 4 5 5 5 5 6 3 2 6 7 7 5 4 4 5 6 5 4 3 1 2 1 2 2 4 6 7 9 10 12 12 12 12 13 12 12 10 11 10 10 10 11 11 12 12 10 11 12 12 12 12 11 10 11 11 10 10 9 8 8 7 7 7 8 7 7 6 6 6 6 7 8 8 8 7 7 6 6 6 6 6 6 6 6 6 6 6 6 5 5 5
6 6 7 5 7 5 7 5 5 5 6 6 3 1 5 8 3 4 4 1 3 4 6 7 7 7 6 3 1 1 2 4 5 7 9 10 11 12 12 13 13 13 12 11 11 10 11 12 12 13 13 12 11 12 12 12 11 11 10 10 10 10 10 8 9 9 9 9 8 7 7 7 7 7 7 6 7 8 7 7 7 7 7 6 7 6 6 6 3 3 3 4 4 6 6 6 6
8 7 7 7 5 3 4 7 6 6 3 6 4 3 6 9 8 9 7 6 4 3 5 6 6 7 7 5 4 3 1 3 5 6 7 9 10 12 13 13 13 13 13 13 12 12 12 12 13 14 14 13 11 11 12 12 12 11 10 10 10 9 9 9 8 8 8 8 8 8 7 7 7 7 7 7 7 8 7 6 7 7 6 6 6 6 6 7 5 7 6 6 8 9 7 8 7
10 10 8 7 7 5 4 5 4 5 3 3 3 1 8 9 8 2 1 1 1 1 2 3 4 5 6 7 5 4 3 2 4 5 7 8 9 10 12 12 13 13 14 13 13 13 12 12 14 14 13 13 12 12 12 12 12 11 10 10 10 9 9 9 8 8 9 8 7 8 7 7 7 7 7 7 6 8 7 7 7 7 6 6 7 7 6 6 6 6 6 7 7 6 7 8 8
11 10 8 8 8 6 4 5 5 5 2 6 6 4 2 6 7 2 2 3 4 4 5 5 6 6 6 6 6 6 5 3 5 6 7 8 9 10 10 11 12 12 14 14 13 13 13 13 14 14 13 13 13 12 11 12 11 11 10 10 10 9 9 9 8 7 7 7 6 7 6 6 6 6 6 6 6 7 7 7 7 7 7 7 7 7 6 6 6 6 5 6 7 6 6 6 7
6 5 6 8 10 5 8 4 6 5 4 4 7 4 2 4 4 4 5 5 7 7 6 6 6 6 6 6 5 4 4 4 3 5 6 8 9 10 9 10 11 11 14 13 15 14 14 14 15 15 14 13 13 13 12 11 11 10 11 11 11 10 9 9 8 7 7 7 7 6 6 6 6 6 5 5 6 6 7 7 7 8 7 7 7 7 7 6 6 6 6 6 7 6 6 7 7
8 8 10 6 3 7 1 2 3 2 5 8 4 7 7 5 9 5 0 3 3 3 4 5 4 4 5 5 4 4 3 2 2 2 4 7 7 9 9 10 10 11 12 14 15 15 15 15 15 16 15 13 14 13 13 12 11 11 11 12 11 11 10 10 9 9 9 8 7 7 6 6 6 6 5 5 6 6 6 7 7 7 7 7 6 6 7 7 6 6 7 7 7 6 6 6 6
5 8 6 7 1 5 3 5 3 4 7 4 3 8 7 3 2 4 2 4 2 3 3 2 3 4 5 3 3 3 2 1 1 2 2 4 6 8 8 9 10 11 13 13 15 15 14 14 14 15 15 15 14 13 13 11 12 11 12 12 12 12 11 11 10 10 9 9 8 8 7 7 7 6 5 5 6 6 7 7 7 7 7 7 7 7 7 7 6 6 6 6 6 6 7 6 6
8 6 8 9 6 9 8 4 8 6 7 6 8 9 10 7 6 2 2 3 4 4 4 5 4 4 3 3 4 2 2 3 2 2 4 5 6 7 8 8 9 10 11 12 13 13 13 13 13 14 15 14 13 12 12 11 11 9 10 12 13 12 11 11 11 10 10 9 10 9 9 8 8 7 7 7 7 7 7 7 7 7 6 6 6 6 6 6 6 5 5 5 6 6 6 7 7
4 3 7 3 5 8 5 6 8 7 8 7 8 7 7 4 3 1 5 4 5 5 6 5 6 5 3 3 3 3 2 1 1 1 2 4 6 7 8 8 9 10 11 10 12 11 13 13 13 14 13 13 13 13 13 12 12 11 11 11 12 12 12 11 11 11 10 10 10 10 10 9 8 7 7 8 7 8 8 8 7 7 7 6 6 6 6 6 6 5 4 5 6 7 7 7 7
10 10 10 7 8 2 7 3 7 8 7 7 7 8 7 7 2 3 5 5 6 6 7 6 5 5 4 4 3 4 5 3 2 2 2 4 5 6 7 8 8 9 9 10 10 12 12 12 12 13 14 14 14 13 13 13 12 12 12 13 13 13 13 11 11 11 11 10 9 9 9 8 7 7 7 7 8 8 7 7 7 7 7 6 6 6 5 5 6 6 6 6 6 7 7 6 6
11 11 11 10 10 9 10 10 8 10 9 8 8 10 8 3 3 2 5 5 7 8 7 7 6 6 5 5 5 4 5 5 4 2 3 3 4 6 6 8 7 8 10 11 11 11 12 12 12 12 13 13 13 13 13 13 12 12 13 13 13 13 13 12 12 11 11 10 10 10 9 8 8 9 9 8 9 7 7 7 6 7 6 6 6 6 5 5 6 6 6 5 6 6 7 7 6
Wind_Direction
215 218 218 227 237 241 237 211 247 179 233 251 268 199 99 199 287 249 245 126 249 76 10 105 118 159 291 49 47 70 42 21 55 300 32 77 165 138 159 150 148 133 132 133 137 143 142 132 133 132 133 133 132 131 129 127 125 126 127 130 129 127 123 121 116 114 120 121 118 115 115 116 116 114 109 106 105 107 109 111 111 111 117 124 120 114 116 115 107 106 108 108 107 105 103 103 103
208 221 217 217 226 220 208 238 261 200 229 220 201 334 86 147 202 231 29 356 356 17 340 124 123 112 71 135 120 161 80 46 36 66 81 88 157 155 159 154 149 137 135 135 139 146 141 134 133 134 134 134 133 131 130 129 129 128 129 133 133 131 129 123 120 121 123 121 119 114 116 114 110 108 107 106 107 110 114 115 118 122 122 119 119 124 111 107 109 110 109 108 107 105 102 103 104
205 213 183 214 221 237 316 218 249 236 235 240 147 213 96 211 199 85 26 359 11 270 169 151 130 128 144 154 154 358 68 72 70 71 89 130 145 142 155 145 145 137 136 137 148 146 136 132 135 134 134 134 133 130 128 127 129 132 133 134 134 133 133 131 128 125 123 126 123 120 117 114 110 111 110 111 114 118 120 120 122 122 120 121 123 109 115 114 111 111 112 109 107 105 104 102 102
267 255 234 202 204 213 236 216 249 257 236 247 258 142 209 214 142 44 37 20 48 163 162 164 199 79 331 254 36 155 107 100 63 114 131 173 132 143 145 146 146 141 136 142 137 133 133 134 137 137 137 135 133 130 127 128 129 132 133 134 133 134 133 132 130 128 130 126 122 119 117 115 114 115 115 114 113 116 122 123 125 121 118 123 105 111 112 113 114 112 112 108 105 105 105 105 105
239 202 248 232 263 213 232 230 253 245 243 196 231 122 210 198 106 255 64 37 163 163 189 130 228 106 50 55 21 331 51 76 107 94 109 106 114 139 144 145 150 142 142 138 134 130 130 132 137 139 138 136 131 128 129 130 132 132 132 132 133 132 130 129 130 130 128 123 125 124 121 118 116 114 113 113 115 117 121 123 123 118 122 111 110 112 112 113 110 109 109 108 108 105 104 106 106
222 207 205 247 235 356 270 234 221 234 259 7 258 187 165 243 226 260 197 205 198 208 181 198 285 164 154 48 11 79 15 306 94 129 146 135 135 140 145 149 145 138 139 134 132 135 134 132 137 140 137 133 130 130 131 133 134 132 130 131 132 133 132 130 124 125 128 129 131 132 126 121 119 117 113 114 115 119 122 120 117 117 122 113 111 110 113 115 111 108 107 109 111 109 105 106 108
189 200 186 212 234 229 241 241 240 235 154 241 278 274 203 195 241 251 209 209 187 215 178 200 199 190 188 121 100 62 63 37 179 121 185 137 141 147 148 148 134 130 142 137 135 135 128 133 137 138 137 133 129 131 134 135 133 132 130 132 134 134 134 133 132 133 131 130 130 130 123 122 121 116 113 113 115 119 123 123 120 121 118 107 105 107 109 109 108 107 105 107 110 114 115 114 114
265 237 181 214 210 206 225 238 255 234 121 232 278 255 228 238 278 250 231 246 165 228 183 186 204 264 83 151 358 75 73 67 88 131 123 147 145 147 153 145 134 137 144 138 131 127 124 132 139 139 136 132 129 132 135 136 134 131 131 133 136 134 130 127 129 127 127 127 126 126 124 123 117 111 108 110 116 122 125 125 125 127 131 102 109 107 106 105 102 100 100 99 104 120 129 126 127
194 238 127 239 231 213 236 232 244 174 300 235 229 259 280 285 272 258 245 229 239 224 180 201 180 246 89 99 57 105 85 107 136 139 143 149 146 148 150 146 137 137 143 129 126 132 135 133 137 138 131 128 128 132 135 135 134 132 132 133 132 130 128 127 125 125 124 123 123 127 123 119 117 111 109 110 113 119 122 126 129 128 106 110 109 104 101 100 99 95 100 104 110 125 137 143 135
191 234 182 232 222 222 235 212 235 214 226 207 229 218 234 246 250 243 252 222 235 201 159 183 199 288 148 91 136 139 110 130 143 146 147 148 141 144 147 140 137 142 135 135 138 136 132 137 135 129 125 125 126 127 132 135 134 131 131 131 126 125 124 123 124 123 122 122 124 125 125 121 111 113 111 108 108 112 111 111 116 115 106 103 101 103 99 95 97 99 101 105 114 119 144 152 151
196 205 271 221 214 226 219 207 216 164 204 189 214 239 265 272 266 257 243 254 172 188 144 189 217 184 185 83 56 74 124 141 155 150 149 141 140 142 142 139 139 141 136 140 139 135 139 139 129 127 126 124 119 120 121 132 131 130 126 125 122 123 121 120 121 121 120 121 125 130 126 122 124 114 112 108 105 104 111 106 111 103 102 111 110 106 101 96 96 97 95 100 106 120 141 161 154
211 202 191 217 216 223 192 240 177 191 177 186 219 202 292 281 264 249 226 231 180 184 161 209 53 145 149 202 114 137 148 158 159 146 140 142 140 140 138 142 135 133 133 134 138 139 134 125 141 128 126 124 123 123 125 122 120 126 121 123 120 119 120 118 119 124 128 130 127 125 127 126 118 113 111 108 103 105 111 114 115 114 105 111 110 106 101 100 94 86 82 81 94 123 146 155 156
240 196 200 220 218 226 159 221 158 171 202 178 156 95 334 247 239 251 236 234 71 194 126 82 93 241 176 76 67 137 169 150 153 146 140 146 141 140 134 138 132 133 128 132 134 138 138 147 131 145 126 127 129 129 127 124 127 117 123 124 121 121 121 123 120 122 121 126 129 130 126 124 119 114 112 109 108 108 110 112 113 113 121 119 113 107 103 99 90 82 77 73 79 134 146 152 156
255 206 205 223 200 218 182 190 136 193 158 102 85 97 64 5 33 333 333 202 158 35 66 44 231 30 100 165 161 174 157 150 157 142 136 140 145 135 137 135 130 133 126 128 133 98 98 102 117 131 145 145 138 135 129 127 129 131 120 122 121 121 121 123 126 125 129 130 131 134 131 126 120 116 115 113 113 112 112 112 115 120 127 122 119 108 104 101 95 84 76 67 70 124 147 149 152
267 197 254 217 187 217 165 199 173 218 116 127 99 153 118 70 32 10 12 329 89 66 93 55 22 255 70 248 123 174 151 156 147 132 135 143 140 125 130 130 126 123 112 119 113 122 114 106 129 212 163 147 145 145 143 132 129 127 127 126 124 127 128 129 130 130 132 132 132 133 133 130 126 122 121 120 118 115 112 113 115 124 120 124 116 108 111 106 95 87 80 76 82 112 135 141 142
298 224 261 191 176 204 142 229 148 229 116 130 113 112 106 80 32 29 63 25 97 102 235 87 50 20 49 299 27 103 130 151 138 143 146 141 127 123 128 123 126 110 95 99 120 140 153 140 159 206 157 143 144 149 136 127 126 127 127 127 127 129 132 132 131 131 130 133 134 139 140 140 138 133 130 127 123 124 115 107 115 118 126 122 116 116 120 113 101 90 83 89 101 114 125 131 132
209 267 222 233 146 219 141 175 186 120 99 106 123 145 185 89 82 69 77 141 128 115 121 89 74 347 50 62 88 119 137 148 144 149 149 139 132 137 138 138 131 108 117 126 124 153 168 160 187 162 146 147 146 101 111 118 133 135 130 127 128 130 135 138 134 135 136 133 141 140 150 154 143 137 143 130 136 119 113 115 114 118 124 125 124 124 127 116 102 95 92 98 119 122 123 132 132
224 230 236 191 114 227 151 103 20 68 89 103 125 83 291 164 150 114 164 119 110 129 99 107 105 71 65 90 111 130 147 154 151 154 156 140 135 140 142 143 149 134 146 140 131 125 145 152 146 144 140 156 139 132 154 133 162 166 135 136 138 139 142 147 155 149 148 138 147 159 151 153 156 142 142 136 124 126 119 115 115 117 124 133 128 131 127 119 108 102 108 112 120 146 158 153 145
253 218 262 118 171 59 337 18 36 327 63 357 77 158 320 42 268 150 238 126 137 109 78 141 111 105 114 127 129 152 153 145 155 162 161 155 157 149 145 151 144 140 141 135 129 125 122 126 158 141 148 145 159 148 133 158 181 155 138 133 136 145 149 156 151 149 147 149 144 135 146 142 141 129 133 129 122 114 119 119 118 119 126 134 133 131 134 121 111 110 116 141 156 177 201 128 132
140 284 216 88 45 12 312 286 304 312 41 263 359 347 301 51 325 118 266 20 174 52 50 182 190 130 144 143 155 156 159 150 160 164 159 146 135 162 156 149 137 139 133 124 128 129 106 210 154 145 138 148 165 146 142 176 176 139 136 133 134 139 154 151 146 154 145 137 136 137 125 129 135 127 115 128 133 131 124 125 122 120 123 135 136 138 136 127 121 123 154 181 194 189 123 138 117
94 247 286 89 76 305 116 1 339 334 335 303 280 12 279 102 22 254 20 256 129 122 240 274 181 149 149 159 161 170 159 159 160 162 154 145 139 131 141 134 134 139 122 112 126 130 121 90 117 123 151 149 155 142 138 139 135 145 127 134 141 150 155 154 148 143 134 136 139 154 129 150 150 144 148 153 147 138 132 133 147 136 141 140 164 148 159 149 182 160 165 214 118 115 89 77 98
295 285 354 316 296 249 87 16 32 347 330 303 342 279 27 19 251 264 292 314 46 47 110 109 124 129 150 159 165 174 160 152 154 157 154 143 137 132 134 99 109 113 111 138 131 129 128 101 103 111 291 173 155 159 155 140 147 125 129 136 146 148 153 157 150 146 138 144 149 149 124 158 164 150 152 154 149 141 141 132 129 126 135 145 175 159 165 173 189 170 194 151 151 98 92 68 84
265 163 288 319 315 303 341 328 44 317 317 306 315 37 207 263 46 26 359 23 41 21 74 112 110 120 135 151 168 171 160 149 150 161 154 149 144 143 138 135 136 144 152 138 135 120 136 126 138 184 181 214 168 167 163 162 147 141 147 154 152 145 156 155 150 143 135 138 126 122 157 159 160 154 148 152 143 149 138 147 127 129 135 144 170 170 168 179 185 179 176 190 170 122 65 103 115
285 353 347 301 311 294 319 321 342 328 285 314 56 141 250 192 197 93 99 59 37 60 98 108 111 118 134 157 177 166 155 153 157 155 158 155 160 151 125 120 113 121 126 118 98 126 174 160 121 100 283 186 183 171 172 160 161 159 148 150 165 148 164 158 145 138 138 136 134 136 142 148 157 156 155 155 148 156 151 141 136 131 126 139 157 168 172 182 189 188 182 188 194 127 138 125 94
250 253 19 301 292 307 341 331 318 299 261 225 177 201 109 224 43 179 99 83 92 108 114 111 112 125 140 153 167 160 149 148 149 144 145 151 155 144 131 142 120 100 78 122 152 173 212 176 146 161 177 244 182 179 175 170 178 171 159 162 157 165 172 154 143 145 147 138 140 142 145 140 160 156 155 155 156 154 149 145 149 132 134 128 153 169 178 182 190 200 190 192 181 161 188 151 152
349 329 304 291 291 338 6 349 53 139 138 160 174 147 134 159 235 169 97 98 110 125 120 114 118 134 140 152 166 162 158 148 151 157 144 182 154 149 142 150 143 138 188 201 180 200 212 196 180 184 188 218 204 187 182 184 190 181 171 164 155 170 164 153 154 148 136 143 145 144 144 150 144 146 158 160 160 152 143 146 143 139 123 130 150 158 173 186 194 198 204 224 170 169 205 150 203
346 316 321 301 327 322 46 357 85 96 118 164 241 156 151 160 219 131 115 114 131 133 119 124 129 131 146 143 157 166 157 155 162 158 160 167 164 161 160 164 164 165 177 201 195 197 206 207 198 208 210 233 230 196 199 203 200 191 170 163 160 169 158 164 172 155 142 150 133 143 151 144 159 152 158 175 154 160 151 157 156 142 140 135 145 145 171 183 199 200 241 270 261 243 243 127 241
310 323 293 257 243 197 120 135 132 164 121 228 248 187 154 162 215 59 123 122 143 140 135 146 149 144 161 155 166 163 168 163 163 163 167 162 168 171 171 171 171 163 181 199 190 194 196 220 222 225 232 245 250 229 209 217 210 195 178 170 166 159 165 181 177 159 149 138 140 152 159 155 174 148 165 170 165 164 158 156 152 152 140 149 149 142 155 157 201 190 194 203 241 257 255 264 234
313 289 249 170 220 211 176 211 124 266 119 231 221 232 220 200 216 108 117 131 140 152 150 160 163 157 158 162 164 171 179 171 168 175 175 167 164 177 183 181 168 169 178 197 202 199 194 195 293 298 276 251 253 261 253 243 229 207 187 177 169 157 180 183 176 164 158 139 155 174 156 167 179 151 169 184 162 170 150 154 155 149 150 139 132 129 132 166 183 194 207 235 239 238 242 222 241
273 226 283 236 208 214 150 160 156 218 85 215 215 246 190 157 113 127 129 145 148 153 170 173 165 168 164 169 178 168 169 180 181 181 175 173 169 175 187 177 167 182 175 191 213 220 206 171 198 229 263 235 283 286 289 275 245 220 193 179 165 167 172 182 176 169 153 153 163 169 172 183 182 168 167 167 190 161 160 173 157 160 145 145 129 152 169 175 195 203 255 233 207 241 211 191 208
248 119 243 265 253 142 134 143 145 223 116 209 236 267 107 102 120 123 146 147 160 172 171 174 172 169 163 173 189 176 173 179 192 185 176 182 178 182 180 174 174 179 180 178 218 213 183 177 213 220 215 298 293 295 285 278 277 249 206 190 163 179 166 189 175 169 173 173 173 167 185 181 190 173 172 165 188 173 169 172 170 165 156 166 156 169 201 188 197 227 216 248 230 239 235 190 224
221 222 204 199 247 138 132 143 184 243 146 215 241 250 212 138 126 146 146 155 168 176 181 176 172 179 169 177 190 183 184 183 188 194 193 188 189 185 187 181 183 182 182 172 187 202 219 203 191 199 207 207 226 251 264 271 261 256 234 183 182 181 187 192 176 186 182 171 179 168 175 174 181 181 184 180 179 195 182 174 184 155 158 171 165 197 233 210 193 213 210 236 254 253 286 192 194
203 266 48 276 219 148 160 144 188 302 151 203 230 281 261 124 115 141 155 163 168 185 184 188 181 182 181 181 188 196 188 195 198 197 192 202 195 188 192 196 194 193 191 185 184 173 186 211 208 181 193 217 232 223 217 236 263 255 231 184 203 186 195 198 184 181 186 190 175 177 169 174 183 181 192 192 206 211 198 193 174 160 192 183 192 197 228 238 203 161 269 168 242 253 251 223 169
188 236 348 31 289 166 155 123 151 184 240 214 211 247 276 75 113 144 166 182 182 198 197 191 196 192 190 186 194 195 204 207 207 203 201 200 196 196 190 200 205 201 199 200 195 180 175 193 213 192 200 208 214 231 232 211 236 246 247 211 201 205 195 202 193 188 182 189 190 189 174 171 190 182 192 194 210 221 219 212 190 174 202 195 208 212 219 230 229 226 160 225 258 274 284 330 314
82 173 205 169 167 290 0 311 93 252 211 252 218 237 251 136 117 156 171 189 207 212 206 206 204 201 194 200 196 197 200 206 209 209 200 202 198 197 195 195 203 207 208 210 205 184 169 193 202 212 215 217 207 212 231 245 237 265 257 231 205 211 197 189 196 196 189 188 195 193 188 182 182 194 195 207 195 218 215 215 234 197 220 206 212 224 224 219 227 207 237 174 182 228 195 270 354
41 308 354 327 263 150 45 52 68 302 252 230 233 242 235 217 190 167 175 188 210 213 209 218 219 211 206 207 202 201 201 201 204 206 206 199 203 203 198 195 197 201 200 207 206 195 196 190 189 203 208 215 210 202 213 233 220 180 243 256 228 214 207 181 189 195 186 196 201 198 193 195 183 187 202 204 213 206 221 220 206 226 232 226 213 224 232 214 197 211 212 235 217 230 220 226 195
298 238 271 302 293 135 100 74 43 273 267 246 258 249 251 241 228 201 196 190 207 217 217 219 215 212 212 207 210 205 199 201 187 199 206 209 208 207 205 200 199 197 200 202 202 204 200 194 196 202 203 205 205 206 204 198 186 201 232 206 211 193 205 190 187 197 192 191 213 197 193 192 197 190 203 203 210 199 233 221 203 223 228 237 227 227 234 239 222 222 213 218 232 230 235 185 196
277 270 260 203 239 324 62 3 43 248 284 296 303 275 259 242 225 217 209 215 223 221 222 223 223 217 211 213 215 207 199 194 189 186 200 206 206 206 202 202 203 204 201 203 205 202 203 203 202 202 198 204 208 204 207 200 200 219 224 214 218 203 191 194 188 189 196 185 188 198 190 192 193 193 202 209 207 218 227 227 222 219 225 232 239 237 226 214 212 217 226 217 212 240 227 221 30
228 270 268 284 212 50 157 131 111 146 264 302 335 281 252 234 226 215 220 226 234 232 233 231 225 220 211 213 213 209 197 193 182 188 197 202 205 195 196 203 210 213 207 207 209 206 204 201 206 202 202 202 204 205 208 205 208 215 217 221 218 205 203 201 195 177 178 186 172 183 181 181 189 196 196 200 207 215 232 252 245 236 230 232 223 220 213 212 218 219 220 249 213 194 239 163 216
255 224 239 252 49 297 199 127 111 152 278 319 315 284 264 219 220 227 222 228 229 229 228 232 236 229 221 213 209 208 195 190 183 191 192 195 199 190 188 189 197 201 200 199 206 209 208 208 204 207 203 203 201 204 205 205 201 202 216 232 214 228 190 172 181 170 179 179 175 186 183 177 187 199 194 199 207 207 218 236 229 222 222 225 242 227 215 218 208 216 213 230 255 244 211 168 181
179 283 287 282 306 77 310 46 11 215 206 256 272 257 256 217 219 212 203 212 225 216 223 232 232 235 233 230 222 207 205 191 193 188 186 191 197 195 191 190 187 195 199 199 202 205 209 209 209 207 205 204 201 204 204 196 192 192 196 205 199 185 178 179 184 184 186 182 183 179 184 177 181 193 192 213 212 196 212 221 223 213 215 217 226 232 226 225 217 217 217 230 236 261 231 180 209
197 203 299 343 335 288 215 271 280 242 220 131 312 284 271 175 226 239 141 188 218 214 228 229 227 222 218 221 217 210 211 201 196 192 189 191 194 196 195 191 191 197 200 201 200 204 206 208 209 208 208 205 202 200 202 195 193 191 188 193 195 187 188 187 191 188 182 183 190 174 177 180 187 190 196 203 213 213 200 217 223 220 201 204 211 225 220 202 226 229 213 225 230 232 273 228 220
281 111 152 129 302 302 282 283 268 257 268 99 326 287 288 177 231 192 195 237 232 205 228 240 232 224 217 223 216 207 203 196 194 194 194 190 197 199 197 196 196 199 203 199 198 201 204 208 209 209 210 207 202 203 199 197 197 199 196 202 201 197 193 189 198 186 188 182 180 176 180 185 197 193 208 205 208 209 212 217 218 226 220 212 206 222 218 222 222 217 207 217 237 233 227 252 248
265 85 136 199 251 256 314 299 284 281 336 292 245 267 280 284 283 120 163 248 252 242 233 241 245 238 233 231 219 211 200 191 191 194 193 191 192 194 194 196 200 202 198 193 196 198 202 206 207 210 210 210 204 201 199 198 206 206 201 200 203 200 201 191 187 189 189 187 189 187 190 192 202 207 205 216 211 208 212 211 211 216 218 212 213 217 223 221 235 221 220 235 231 241 233 246 254
46 112 165 226 261 307 279 271 283 302 315 287 223 170 256 256 248 182 237 257 246 246 245 242 243 237 230 234 237 213 207 194 197 186 190 189 191 194 193 194 200 204 195 192 193 194 197 204 207 207 209 208 207 204 204 203 211 210 203 197 199 199 193 194 193 198 191 190 195 188 203 202 204 211 212 209 214 215 205 208 209 207 206 210 211 218 216 219 228 235 217 226 237 234 240 247 255
125 132 189 178 223 243 262 270 269 248 259 260 259 84 286 282 291 238 169 258 273 264 257 259 267 303 307 267 256 240 185 190 197 189 184 188 189 191 192 192 196 201 196 194 191 188 193 200 205 205 205 208 206 204 205 208 209 212 208 198 201 198 193 195 199 191 195 192 196 195 200 206 204 203 212 215 215 213 211 209 209 211 209 215 224 238 241 226 225 233 231 233 227 239 234 233 239
106 176 201 202 218 224 216 264 286 265 242 245 116 267 283 291 291 306 293 21 350 334 320 323 304 245 204 99 286 245 194 184 193 188 184 184 186 187 186 191 193 194 192 192 188 186 192 199 200 202 204 205 209 206 205 209 208 210 211 204 204 201 191 191 190 190 190 192 202 199 199 201 202 206 203 209 212 216 209 211 214 211 214 217 222 230 234 236 224 219 225 225 230 235 240 232 234
206 207 230 226 215 210 230 222 226 251 250 119 143 209 231 269 221 150 127 25 268 283 291 295 309 316 326 332 313 43 136 175 180 182 182 179 180 186 185 190 190 189 188 189 189 187 194 199 197 199 201 205 205 206 203 206 210 211 213 211 210 211 206 201 198 196 194 199 202 206 200 197 195 198 202 203 205 212 210 209 213 217 214 212 216 222 235 235 215 267 243 244 251 241 237 237 236
222 231 227 241 243 197 243 202 212 216 291 114 126 185 233 231 251 287 301 294 284 288 290 297 307 313 320 322 327 307 263 200 183 183 179 183 187 186 188 189 188 187 189 189 187 188 194 197 197 198 200 202 204 206 205 205 206 208 210 212 209 209 211 208 202 201 196 198 200 204 200 200 197 202 203 210 206 205 207 210 208 211 210 213 220 218 214 226 200 193 214 217 231 238 230 229 232
214 224 219 226 247 243 247 259 275 294 188 117 163 162 263 278 266 227 318 4 47 191 227 250 278 289 301 309 311 291 257 203 192 190 187 187 190 192 191 190 189 188 188 187 185 190 192 197 199 200 201 198 202 203 205 206 207 206 205 206 204 201 202 203 204 203 197 199 197 200 200 203 199 204 201 210 202 201 208 214 214 216 217 211 207 210 214 211 217 221 217 225 233 234 240 233 236
213 224 235 233 246 253 237 241 237 249 319 134 153 234 254 269 78 156 158 263 252 235 237 248 252 257 262 275 281 279 274 228 191 200 194 190 192 192 190 192 190 189 187 185 182 191 192 197 199 201 201 200 198 202 205 207 207 206 205 204 203 198 197 198 201 203 199 198 197 200 203 205 211 205 210 204 207 210 215 219 221 223 220 215 210 204 198 200 198 207 213 222 223 225 232 235 241
198 218 249 254 242 244 259 2 323 316 306 267 177 250 280 298 42 239 249 258 262 247 238 225 224 226 229 240 246 255 264 274 244 187 193 193 190 192 191 193 193 190 188 186 187 190 193 196 198 201 202 198 199 200 204 207 207 205 204 204 204 200 199 197 196 198 199 200 196 202 203 210 213 213 208 205 201 211 213 218 218 224 225 225 222 222 219 215 199 198 205 206 217 213 223 230 237
159 200 217 237 351 274 260 189 41 330 268 262 259 247 253 239 237 228 46 274 253 230 211 202 229 211 212 238 239 235 246 281 262 205 184 187 190 191 193 193 194 192 191 191 193 194 196 197 197 198 201 199 196 197 199 203 204 203 204 205 202 201 199 199 197 192 195 193 193 198 202 204 208 209 205 206 210 210 215 215 219 220 222 219 218 219 224 224 215 210 210 205 215 213 216 226 235
139 220 201 106 32 311 247 263 148 232 246 248 219 261 274 258 285 117 244 275 285 283 272 259 264 223 217 209 214 208 207 180 216 217 178 188 196 195 195 196 196 194 194 192 194 197 202 200 200 198 198 198 195 191 197 202 202 203 203 203 203 202 199 199 198 193 190 190 193 196 199 199 200 203 207 202 208 209 212 214 223 224 223 225 227 227 231 232 229 230 230 230 226 220 217 216 227
259 315 110 209 180 218 201 248 250 249 256 268 246 263 271 264 267 224 240 283 316 297 303 296 277 262 259 240 227 200 162 165 187 203 189 188 197 198 199 199 199 195 196 196 195 197 203 205 205 206 203 201 196 194 198 202 202 203 203 202 201 201 201 200 197 195 192 194 195 195 195 196 195 199 205 202 205 205 205 205 213 219 221 226 229 229 228 231 232 230 223 235 234 236 237 230 225
243 216 219 250 283 254 207 200 249 262 265 258 255 260 272 247 245 276 288 280 283 299 287 290 303 294 282 277 275 255 203 207 239 207 198 195 193 196 194 194 196 193 193 194 194 198 199 201 203 205 206 207 203 199 196 201 202 202 202 202 201 202 200 200 197 196 196 197 196 196 193 193 195 199 204 207 208 208 206 205 205 207 209 216 219 223 224 230 228 225 215 227 232 238 243 242 234
192 209 224 199 231 25 297 270 237 255 260 257 267 247 245 267 176 230 289 287 282 282 285 286 287 291 290 287 286 292 305 307 294 274 234 204 195 191 187 186 196 187 189 191 188 195 197 198 202 203 204 202 204 201 199 201 202 206 206 203 201 202 203 203 199 199 199 200 196 197 197 197 196 204 204 207 213 213 213 213 209 208 208 201 211 216 219 228 228 227 222 222 226 234 239 242 242
210 208 222 215 216 209 225 244 220 245 255 260 262 260 259 272 111 223 284 287 284 275 269 278 283 288 294 296 289 286 290 297 291 267 241 217 196 184 184 180 190 185 186 193 190 192 195 198 200 202 203 207 204 201 200 199 200 202 204 206 205 203 203 203 201 199 201 201 197 195 195 197 201 203 206 205 208 202 207 208 210 210 208 207 209 212 216 224 232 231 227 226 235 238 246 249 245